<?xml version="1.0"?>
<gpx xmlns="http://www.topografix.com/GPX/1/1" xmlns:xsi="http://www.w3.org/2001/XMLSchema-instance" version="1.1" creator="GPX RubyGem 1.0.0 -- http://dougfales.github.io/gpx/" xsi:schemaLocation="http://www.topografix.com/GPX/1/1 http://www.topografix.com/GPX/1/1/gpx.xsd">
  <metadata>
    <name/>
    <time>2026-05-10T21:55:38+00:00</time>
    <bound minlat="90.0" minlon="180.0" maxlat="-90.0" maxlon="-180.0"/>
  </metadata>
  <trk>
    <name/>
    <trkseg>
      <trkpt lat="49.963447" lon="14.069783">
        <time>1970-01-01T00:00:00+00:00</time>
        <ele>230.0</ele>
      </trkpt>
      <trkpt lat="49.963615" lon="14.069744">
        <time>1970-01-01T00:00:00+00:00</time>
        <ele>229.0</ele>
      </trkpt>
      <trkpt lat="49.963629" lon="14.069875">
        <time>1970-01-01T00:00:00+00:00</time>
        <ele>230.0</ele>
      </trkpt>
      <trkpt lat="49.963639" lon="14.069964">
        <time>1970-01-01T00:00:00+00:00</time>
        <ele>230.0</ele>
      </trkpt>
      <trkpt lat="49.963664" lon="14.070203">
        <time>1970-01-01T00:00:00+00:00</time>
        <ele>230.0</ele>
      </trkpt>
      <trkpt lat="49.963408" lon="14.07031">
        <time>1970-01-01T00:00:00+00:00</time>
        <ele>229.0</ele>
      </trkpt>
      <trkpt lat="49.963298" lon="14.070324">
        <time>1970-01-01T00:00:00+00:00</time>
        <ele>229.0</ele>
      </trkpt>
      <trkpt lat="49.963351" lon="14.069995">
        <time>1970-01-01T00:00:00+00:00</time>
        <ele>229.0</ele>
      </trkpt>
      <trkpt lat="49.963318" lon="14.06946">
        <time>1970-01-01T00:00:00+00:00</time>
        <ele>233.0</ele>
      </trkpt>
      <trkpt lat="49.963374" lon="14.069315">
        <time>1970-01-01T00:00:00+00:00</time>
        <ele>235.0</ele>
      </trkpt>
      <trkpt lat="49.963377" lon="14.0693">
        <time>1970-01-01T00:00:00+00:00</time>
        <ele>235.0</ele>
      </trkpt>
      <trkpt lat="49.963395" lon="14.069237">
        <time>1970-01-01T00:00:00+00:00</time>
        <ele>237.0</ele>
      </trkpt>
      <trkpt lat="49.963341" lon="14.069052">
        <time>1970-01-01T00:00:00+00:00</time>
        <ele>241.0</ele>
      </trkpt>
      <trkpt lat="49.963214" lon="14.068777">
        <time>1970-01-01T00:00:00+00:00</time>
        <ele>245.0</ele>
      </trkpt>
      <trkpt lat="49.962922" lon="14.068504">
        <time>1970-01-01T00:00:00+00:00</time>
        <ele>248.0</ele>
      </trkpt>
      <trkpt lat="49.962655" lon="14.068592">
        <time>1970-01-01T00:00:00+00:00</time>
        <ele>241.0</ele>
      </trkpt>
      <trkpt lat="49.962607" lon="14.068498">
        <time>1970-01-01T00:00:00+00:00</time>
        <ele>242.0</ele>
      </trkpt>
      <trkpt lat="49.962552" lon="14.068299">
        <time>1970-01-01T00:00:00+00:00</time>
        <ele>244.0</ele>
      </trkpt>
      <trkpt lat="49.962494" lon="14.067681">
        <time>1970-01-01T00:00:00+00:00</time>
        <ele>250.0</ele>
      </trkpt>
      <trkpt lat="49.962535" lon="14.067639">
        <time>1970-01-01T00:00:00+00:00</time>
        <ele>252.0</ele>
      </trkpt>
      <trkpt lat="49.962674" lon="14.067855">
        <time>1970-01-01T00:00:00+00:00</time>
        <ele>253.0</ele>
      </trkpt>
      <trkpt lat="49.962805" lon="14.068019">
        <time>1970-01-01T00:00:00+00:00</time>
        <ele>256.0</ele>
      </trkpt>
      <trkpt lat="49.962803" lon="14.067819">
        <time>1970-01-01T00:00:00+00:00</time>
        <ele>259.0</ele>
      </trkpt>
      <trkpt lat="49.962773" lon="14.067606">
        <time>1970-01-01T00:00:00+00:00</time>
        <ele>261.0</ele>
      </trkpt>
      <trkpt lat="49.962769" lon="14.067438">
        <time>1970-01-01T00:00:00+00:00</time>
        <ele>263.0</ele>
      </trkpt>
      <trkpt lat="49.962784" lon="14.067412">
        <time>1970-01-01T00:00:00+00:00</time>
        <ele>264.0</ele>
      </trkpt>
      <trkpt lat="49.962926" lon="14.067711">
        <time>1970-01-01T00:00:00+00:00</time>
        <ele>265.0</ele>
      </trkpt>
      <trkpt lat="49.96299" lon="14.067784">
        <time>1970-01-01T00:00:00+00:00</time>
        <ele>265.0</ele>
      </trkpt>
      <trkpt lat="49.963027" lon="14.067776">
        <time>1970-01-01T00:00:00+00:00</time>
        <ele>265.0</ele>
      </trkpt>
      <trkpt lat="49.963041" lon="14.067723">
        <time>1970-01-01T00:00:00+00:00</time>
        <ele>266.0</ele>
      </trkpt>
      <trkpt lat="49.962992" lon="14.067297">
        <time>1970-01-01T00:00:00+00:00</time>
        <ele>271.0</ele>
      </trkpt>
      <trkpt lat="49.96296" lon="14.066979">
        <time>1970-01-01T00:00:00+00:00</time>
        <ele>274.0</ele>
      </trkpt>
      <trkpt lat="49.962988" lon="14.066974">
        <time>1970-01-01T00:00:00+00:00</time>
        <ele>274.0</ele>
      </trkpt>
      <trkpt lat="49.962948" lon="14.066771">
        <time>1970-01-01T00:00:00+00:00</time>
        <ele>277.0</ele>
      </trkpt>
      <trkpt lat="49.962887" lon="14.066113">
        <time>1970-01-01T00:00:00+00:00</time>
        <ele>287.0</ele>
      </trkpt>
      <trkpt lat="49.962881" lon="14.066071">
        <time>1970-01-01T00:00:00+00:00</time>
        <ele>288.0</ele>
      </trkpt>
      <trkpt lat="49.962838" lon="14.065727">
        <time>1970-01-01T00:00:00+00:00</time>
        <ele>291.0</ele>
      </trkpt>
      <trkpt lat="49.962733" lon="14.065501">
        <time>1970-01-01T00:00:00+00:00</time>
        <ele>290.0</ele>
      </trkpt>
      <trkpt lat="49.962662" lon="14.065423">
        <time>1970-01-01T00:00:00+00:00</time>
        <ele>289.0</ele>
      </trkpt>
      <trkpt lat="49.962576" lon="14.065163">
        <time>1970-01-01T00:00:00+00:00</time>
        <ele>289.0</ele>
      </trkpt>
      <trkpt lat="49.962531" lon="14.064974">
        <time>1970-01-01T00:00:00+00:00</time>
        <ele>290.0</ele>
      </trkpt>
      <trkpt lat="49.962531" lon="14.064974">
        <time>1970-01-01T00:00:00+00:00</time>
        <ele>290.0</ele>
      </trkpt>
      <trkpt lat="49.962576" lon="14.065163">
        <time>1970-01-01T00:00:00+00:00</time>
        <ele>289.0</ele>
      </trkpt>
      <trkpt lat="49.962662" lon="14.065423">
        <time>1970-01-01T00:00:00+00:00</time>
        <ele>289.0</ele>
      </trkpt>
      <trkpt lat="49.962733" lon="14.065501">
        <time>1970-01-01T00:00:00+00:00</time>
        <ele>290.0</ele>
      </trkpt>
      <trkpt lat="49.962838" lon="14.065727">
        <time>1970-01-01T00:00:00+00:00</time>
        <ele>291.0</ele>
      </trkpt>
      <trkpt lat="49.962881" lon="14.066071">
        <time>1970-01-01T00:00:00+00:00</time>
        <ele>288.0</ele>
      </trkpt>
      <trkpt lat="49.962887" lon="14.066113">
        <time>1970-01-01T00:00:00+00:00</time>
        <ele>287.0</ele>
      </trkpt>
      <trkpt lat="49.962948" lon="14.066771">
        <time>1970-01-01T00:00:00+00:00</time>
        <ele>277.0</ele>
      </trkpt>
      <trkpt lat="49.962988" lon="14.066974">
        <time>1970-01-01T00:00:00+00:00</time>
        <ele>274.0</ele>
      </trkpt>
      <trkpt lat="49.96296" lon="14.066979">
        <time>1970-01-01T00:00:00+00:00</time>
        <ele>274.0</ele>
      </trkpt>
      <trkpt lat="49.962992" lon="14.067297">
        <time>1970-01-01T00:00:00+00:00</time>
        <ele>271.0</ele>
      </trkpt>
      <trkpt lat="49.963041" lon="14.067723">
        <time>1970-01-01T00:00:00+00:00</time>
        <ele>266.0</ele>
      </trkpt>
      <trkpt lat="49.963027" lon="14.067776">
        <time>1970-01-01T00:00:00+00:00</time>
        <ele>265.0</ele>
      </trkpt>
      <trkpt lat="49.96299" lon="14.067784">
        <time>1970-01-01T00:00:00+00:00</time>
        <ele>265.0</ele>
      </trkpt>
      <trkpt lat="49.962926" lon="14.067711">
        <time>1970-01-01T00:00:00+00:00</time>
        <ele>265.0</ele>
      </trkpt>
      <trkpt lat="49.962784" lon="14.067412">
        <time>1970-01-01T00:00:00+00:00</time>
        <ele>264.0</ele>
      </trkpt>
      <trkpt lat="49.962769" lon="14.067438">
        <time>1970-01-01T00:00:00+00:00</time>
        <ele>263.0</ele>
      </trkpt>
      <trkpt lat="49.962773" lon="14.067606">
        <time>1970-01-01T00:00:00+00:00</time>
        <ele>261.0</ele>
      </trkpt>
      <trkpt lat="49.962803" lon="14.067819">
        <time>1970-01-01T00:00:00+00:00</time>
        <ele>259.0</ele>
      </trkpt>
      <trkpt lat="49.962805" lon="14.068019">
        <time>1970-01-01T00:00:00+00:00</time>
        <ele>256.0</ele>
      </trkpt>
      <trkpt lat="49.962674" lon="14.067855">
        <time>1970-01-01T00:00:00+00:00</time>
        <ele>253.0</ele>
      </trkpt>
      <trkpt lat="49.962535" lon="14.067639">
        <time>1970-01-01T00:00:00+00:00</time>
        <ele>252.0</ele>
      </trkpt>
      <trkpt lat="49.962494" lon="14.067681">
        <time>1970-01-01T00:00:00+00:00</time>
        <ele>250.0</ele>
      </trkpt>
      <trkpt lat="49.962552" lon="14.068299">
        <time>1970-01-01T00:00:00+00:00</time>
        <ele>244.0</ele>
      </trkpt>
      <trkpt lat="49.962607" lon="14.068498">
        <time>1970-01-01T00:00:00+00:00</time>
        <ele>242.0</ele>
      </trkpt>
      <trkpt lat="49.962655" lon="14.068592">
        <time>1970-01-01T00:00:00+00:00</time>
        <ele>241.0</ele>
      </trkpt>
      <trkpt lat="49.962922" lon="14.068504">
        <time>1970-01-01T00:00:00+00:00</time>
        <ele>248.0</ele>
      </trkpt>
      <trkpt lat="49.963214" lon="14.068777">
        <time>1970-01-01T00:00:00+00:00</time>
        <ele>245.0</ele>
      </trkpt>
      <trkpt lat="49.963341" lon="14.069052">
        <time>1970-01-01T00:00:00+00:00</time>
        <ele>241.0</ele>
      </trkpt>
      <trkpt lat="49.963395" lon="14.069237">
        <time>1970-01-01T00:00:00+00:00</time>
        <ele>237.0</ele>
      </trkpt>
      <trkpt lat="49.963377" lon="14.0693">
        <time>1970-01-01T00:00:00+00:00</time>
        <ele>235.0</ele>
      </trkpt>
      <trkpt lat="49.963374" lon="14.069315">
        <time>1970-01-01T00:00:00+00:00</time>
        <ele>235.0</ele>
      </trkpt>
      <trkpt lat="49.963318" lon="14.06946">
        <time>1970-01-01T00:00:00+00:00</time>
        <ele>233.0</ele>
      </trkpt>
      <trkpt lat="49.963351" lon="14.069995">
        <time>1970-01-01T00:00:00+00:00</time>
        <ele>229.0</ele>
      </trkpt>
      <trkpt lat="49.963298" lon="14.070324">
        <time>1970-01-01T00:00:00+00:00</time>
        <ele>229.0</ele>
      </trkpt>
      <trkpt lat="49.963408" lon="14.07031">
        <time>1970-01-01T00:00:00+00:00</time>
        <ele>229.0</ele>
      </trkpt>
      <trkpt lat="49.963664" lon="14.070203">
        <time>1970-01-01T00:00:00+00:00</time>
        <ele>230.0</ele>
      </trkpt>
      <trkpt lat="49.963639" lon="14.069964">
        <time>1970-01-01T00:00:00+00:00</time>
        <ele>230.0</ele>
      </trkpt>
      <trkpt lat="49.963629" lon="14.069875">
        <time>1970-01-01T00:00:00+00:00</time>
        <ele>230.0</ele>
      </trkpt>
      <trkpt lat="49.963615" lon="14.069744">
        <time>1970-01-01T00:00:00+00:00</time>
        <ele>229.0</ele>
      </trkpt>
      <trkpt lat="49.963447" lon="14.069783">
        <time>1970-01-01T00:00:00+00:00</time>
        <ele>230.0</ele>
      </trkpt>
    </trkseg>
  </trk>
</gpx>
